Regional Weather Roundup
Issued by NWS

Home | Current Version | Previous Version | Graphics & Text | Print | Product List | Glossary On
Versions: 1 2 3 4 5 6 7 8 9 10 11 12 13 14 15 16 17 18 19 20 21 22 23 24 25 26 27 28 29 30 31 32 33 34 35 36 37 38 39 40 41 42 43 44 45 46 47 48 49 50
953
ASUS43 KMPX 030301
RWRMN
WEATHER ROUNDUP FOR MINNESOTA
NATIONAL WEATHER SERVICE TWIN CITIES/CHANHASSEN MN
900 PM CST FRI DEC 02 2016


NOTE: "FAIR" INDICATES FEW OR NO CLOUDS BELOW 12,000 FEET WITH NO
SIGNIFICANT WEATHER AND/OR OBSTRUCTIONS TO VISIBILITY. N/A MEANS
CURRENT SKY AND/OR WEATHER CONDITIONS ARE NOT AVAILABLE.

MNZ060>063-068>070-030400-
   Twin Cities Metro

CITY           SKY/WX    TMP DP  RH WIND       PRES   REMARKS
TWIN CITIES    FLURRIES  31  23  72 SW6       30.30R WCI  25
ST PAUL        CLOUDY    31  26  82 W3        30.31R
CRYSTAL        CLOUDY    31  22  69 NW7       30.29R WCI  24
BLAINE         CLOUDY    32  25  74 NW5       30.29R WCI  27
LAKEVILLE      CLOUDY    28  23  80 W5        30.30R WCI  23
EDEN PRAIRIE   CLOUDY    31  23  72 SW8       30.29R WCI  23
SOUTH ST PAUL  CLOUDY    32  24  74 W7        30.30R WCI  25
LAKE ELMO      CLOUDY    32  27  80 CALM      30.29S
$$
MNZ001>005-007-008-013>017-022>024-027-028-030400-
   Northwest Minnesota

CITY           SKY/WX    TMP DP  RH WIND       PRES   REMARKS
BEMIDJI        CLOUDY    24  19  82 W5        30.25S WCI  18
HALLOCK        CLOUDY    28  27  93 SE3       30.25S
ROSEAU         CLOUDY    27  21  80 CALM      30.25S
WARROAD        CLOUDY    25  21  86 SW3       30.25S
THIEF RVR FALL CLOUDY    27  24  89 CALM      30.26F
CROOKSTON      CLOUDY    30  23  74 W3        30.27F
FOSSTON        CLOUDY    25  19  80 CALM      30.26S
DETROIT LAKES  CLOUDY    28  21  74 NW6       30.27S WCI  22
MOORHEAD       CLOUDY    28  19  69 SW3       30.30S
PARK RAPIDS    CLOUDY    26  17  68 NW7       30.25F WCI  18
$$
MNZ006-009>011-018-025>026-030400-
   North Central Minnesota

CITY           SKY/WX    TMP DP  RH WIND       PRES   REMARKS
BAUDETTE       CLOUDY    24  21  88 W6        30.24S WCI  17
FLAG ISLAND    CLOUDY    21  19  93 CALM      30.24S
INTL FALLS     CLOUDY    24  20  84 W5        30.24F WCI  18
WASKISH        CLOUDY    27  21  80 SW7       30.25S WCI  19
BIG FORK       CLOUDY    27  21  80 CALM      30.24F
LONGVILLE      CLOUDY    25  21  86 NW3       30.26S
GRAND RAPIDS   CLOUDY    25  22  88 W7        30.26F WCI  17
CRANE LAKE     CLOUDY    23  21  93 NW3       30.26S
ORR            CLOUDY    21  19  93 CALM      30.21F
COOK           CLOUDY    23  21  93 W6        30.24S WCI  16
$$
MNZ012-019>021-037-030400-
   Northeast Minnesota

CITY           SKY/WX    TMP DP  RH WIND       PRES   REMARKS
DULUTH         CLOUDY    28  24  85 NW10      30.22S WCI  19
ELY            CLOUDY    25  25 100 CALM      30.21S
HIBBING        CLOUDY    24  21  88 W5        30.23F WCI  18
EVELETH        CLOUDY    26  23  89 W6        30.24S WCI  19
DULUTH HARBOR  CLOUDY    32  27  80 CALM      30.27S
TWO HARBORS    CLOUDY    32  27  80 NW3       30.22S
SILVER BAY     CLOUDY    28  27  93 CALM      30.21S
GRAND MARAIS     N/A     32  25  75 N8        30.23S WCI  25
G MARAIS ARPRT CLOUDY    25  19  80 CALM      30.18S
$$
MNZ029>031-032-039>041-046>048-054>057-064-030400-
   West Central Minnesota

CITY           SKY/WX    TMP DP  RH WIND       PRES   REMARKS
FERGUS FALLS   CLOUDY    27  19  74 NW7       30.33S WCI  19
WHEATON        CLOUDY   N/A N/A N/A W5        30.33S
MORRIS         CLOUDY    27  21  80 NW6       30.29S WCI  20
ALEXANDRIA     CLOUDY    26  20  77 N5        30.28S WCI  20
ELBOW LAKE     CLOUDY    26  20  79 CALM      30.30S
WADENA         CLOUDY    25  19  80 W3        30.26S
GLENWOOD       CLOUDY    27  21  80 NW3       30.28S
APPLETON       CLOUDY    28  21  74 NW5       30.31R WCI  23
BENSON         CLOUDY    27  19  74 N5        30.31R WCI  21
ORTONVILLE     CLOUDY    27  18  69 CALM      30.31R
MADISON        CLOUDY    30  23  74 N7        30.31R WCI  23
WILLMAR        CLOUDY    28  23  80 CALM      30.31S
$$
MNZ033>034-036-042>043-049>051-058-059-030400-
   Central Minnesota

CITY           SKY/WX    TMP DP  RH WIND       PRES   REMARKS
ST CLOUD       CLOUDY    29  23  78 NW6       30.28R WCI  23
PAYNESVILLE    CLOUDY    28  22  79 NW5       30.29S WCI  23
AITKIN         CLOUDY    28  21  74 CALM      30.25S
PINE RIVER     CLOUDY    25  21  86 W5        30.29S WCI  19
BRAINERD       CLOUDY    26  22  84 NW6       30.27S WCI  19
STAPLES        CLOUDY    25  19  80 NW7       30.27S WCI  17
LONG PRAIRIE   CLOUDY    27  21  80 W3        30.27S
LITTLE FALLS   CLOUDY    28  21  74 CALM      30.28S
LITCHFIELD     CLOUDY    28  23  80 W3        30.30R
BUFFALO        CLOUDY    30  25  83 W6        30.31R WCI  24
MAPLE LAKE     CLOUDY    31  26  84 W6        30.30R WCI  25
$$
MNZ037-044-045-052-053-030400-
   East Central Minnesota

CITY           SKY/WX    TMP DP  RH WIND       PRES   REMARKS
PRINCETON      CLOUDY    30  25  80 W5        30.28S WCI  25
MORA           CLOUDY    30  23  74 W7        30.28S WCI  23
CAMBRIDGE      CLOUDY    30  21  69 CALM      30.26S
RUSH CITY      CLOUDY    28  23  80 CALM      30.28S
MOOSE LAKE     CLOUDY    30  25  80 NW7       30.24S WCI  23
HINCKLEY       CLOUDY    30  27  86 CALM      30.26F
CLOQUET        CLOUDY    28  23  80 NW8       30.23F WCI  20
MCGREGOR       CLOUDY    28  23  80 NW5       30.26S WCI  23
$$
MNZ071>073-080-081-089-090-097-098-030400-
   Southwest Minnesota

CITY           SKY/WX    TMP DP  RH WIND       PRES   REMARKS
MONTEVIDEO     CLOUDY    28  27  93 CALM      30.32S
GRANITE FALLS  CLOUDY    30  25  81 CALM      30.33R
CANBY          CLOUDY    29  23  78 CALM      30.32R
MARSHALL       FLURRIES  28  20  71 NW9       30.31R WCI  19
REDWOOD FALLS  CLOUDY    29  19  66 NW6       30.31R WCI  23
OLIVIA         CLOUDY    30  23  74 NW5       30.30S WCI  25
PIPESTONE      CLOUDY    28  21  74 NW3       30.28S
WINDOM         CLOUDY    28  25  86 CALM      30.30R
WORTHINGTON    CLOUDY    28  22  78 W7        30.30S WCI  21
JACKSON        CLOUDY    28  21  74 W15       30.30S WCI  17
TRACY          CLOUDY    29  24  81 N6        30.29S WCI  23
SLAYTON        CLOUDY    27  20  77 W9        30.30R WCI  17
$$
MNZ065>067-074>077-082>085-091>093-030400-
   South Central Minnesota

CITY           SKY/WX    TMP DP  RH WIND       PRES   REMARKS
MANKATO        CLOUDY    29  22  75 W6        30.32R WCI  23
NEW ULM        CLOUDY    28  21  74 CALM      30.31S
ST JAMES       CLOUDY    28  25  86 CALM      30.32S
FAIRMONT       CLOUDY    29  24  82 CALM      30.31S
GLENCOE        CLOUDY    30  25  81 W6        30.30R WCI  24
FARIBAULT      CLOUDY    28  21  74 W7        30.31S WCI  21
OWATONNA       CLOUDY    28  21  74 W8        30.31R WCI  20
WASECA         CLOUDY    30  23  74 W6        30.32S WCI  24
$$
MNZ078>079-086>088-094>096-030400-
   Southeast Minnesota

CITY           SKY/WX    TMP DP  RH WIND       PRES   REMARKS
ROCHESTER      CLOUDY    28  22  78 NW7       30.30R WCI  21
RED WING       CLOUDY    30  23  74 W6        30.29S WCI  24
STANTON        CLOUDY    31  23  72 W6        30.30R WCI  25
DODGE CENTER   CLOUDY    28  23  80 W7        30.29S WCI  21
WINONA         CLOUDY    34  27  75 NW5       30.32R WCI  30
AUSTIN         CLOUDY    28  21  74 W9        30.30S WCI  20
PRESTON        CLOUDY    28  21  78 W10       30.31R WCI  18
$$
ABBREVIATIONS USED IN REMARKS
   TC - TEMPERATURES IN CELSIUS
  WCI - WIND CHILL INDEX
   HX - HEAT INDEX
  VSB - VISIBILITY
$$




USA.gov is the U.S. government's official web portal to all federal, state and local government web resources and services.